Weather History for Petersburg, WV

Change the Weather History Date:

Sunday, September 15, 2013

  Actual Average (KEKN) Record (KEKN)
Temperature  
Mean Temperature 62 °F 63 °F  
Max Temperature 79 °F 74 °F 90 °F (1939)
Min Temperature 45 °F 51 °F 31 °F (1964)
Degree Days  
Heating Degree Days 3 4  
Month to date heating degree days 35  
Since 1 July heating degree days 65  
Cooling Degree Days 0 1  
Month to date cooling degree days 33  
Year to date cooling degree days 459  
Growing Degree Days 12 (Base 50)    
Moisture  
Dew Point 54 °F    
Average Humidity 83    
Maximum Humidity 99    
Minimum Humidity 49    
Precipitation  
Precipitation 0.00 in 0.13 in 1.85 in (1911)
Month to date precipitation 1.83  
Year to date precipitation 34.64  
Snow  
Snow 0.00 in - - ()
Month to date snowfall  
Since 1 September snowfall  
Snow Depth -    
Sea Level Pressure  
Sea Level Pressure 30.17 in    
Wind  
Wind Speed 0 mph (North)    
Max Wind Speed 0 mph    
Max Gust Speed -    
Visibility 7 miles    
Events Fog    
T = Trace of Precipitation, MM = Missing Value Source: NWS Daily Summary

Daily Weather History Graph

Daily Weather History Graph

Search for Another Location

Airport:

Trip Planner

Search our weather history database for the weather conditions in past years. The results will help you decide how hot, cold, wet, or windy it might be!

Date:

Astronomy

Sep. 15, 2013 Rise Set
Actual Time 6:58 AM EDT 7:24 PM EDT
Civil Twilight 6:31 AM EDT 7:51 PM EDT
Nautical Twilight 5:59 AM EDT 8:22 PM EDT
Astronomical Twilight 5:27 AM EDT 8:54 PM EDT
Moon 4:49 PM EDT (9/15) 2:35 AM EDT (9/15)
Length of Visible Light 13h 19m
Length of Day
12h 26m
Waxing Gibbous, 82% of the Moon is Illuminated
Sep 15
Waxing Gibbous
Sep 19
Full
Sep 26
Last Quarter
Oct 4
New
Oct 11
First Quarter

Hourly Weather History & Observations

Time (EDT) Temp. Dew Point Humidity Pressure Visibility Wind Dir Wind Speed Gust Speed Precip Events Conditions
12:15 AM 46.8 °F 45.7 °F 96% 30.21 in 7.0 mi Calm Calm - N/A   Clear
12:35 AM 45.7 °F 44.8 °F 97% 30.21 in 10.0 mi Calm Calm - N/A   Clear
12:55 AM 45.7 °F 44.6 °F 96% 30.22 in 7.0 mi Calm Calm - N/A   Clear
1:15 AM 47.3 °F 46.2 °F 96% 30.22 in 3.0 mi Calm Calm - N/A   Clear
1:35 AM 46.6 °F 45.5 °F 96% 30.22 in 5.0 mi Calm Calm - N/A   Clear
1:55 AM 47.1 °F 46.2 °F 97% 30.22 in 3.0 mi Calm Calm - N/A   Mostly Cloudy
2:15 AM 48.2 °F 47.3 °F 97% 30.21 in 1.0 mi Calm Calm - N/A   Overcast
2:35 AM 49.3 °F 48.4 °F 97% 30.22 in 0.5 mi Calm Calm - N/A Fog Fog
2:55 AM 49.3 °F 48.4 °F 97% 30.21 in 0.2 mi Calm Calm - N/A Fog Fog
3:15 AM 48.4 °F 47.5 °F 97% 30.21 in 1.0 mi Calm Calm - N/A   Overcast
3:35 AM 48.4 °F 47.5 °F 97% 30.21 in 0.5 mi Calm Calm - N/A Fog Fog
3:55 AM 48.2 °F 47.3 °F 97% 30.21 in 0.2 mi Calm Calm - N/A Fog Fog
4:15 AM 47.8 °F 47.3 °F 98% 30.22 in 0.2 mi Calm Calm - N/A Fog Fog
4:35 AM 47.7 °F 46.9 °F 97% 30.21 in 0.2 mi Calm Calm - N/A Fog Fog
4:55 AM 47.8 °F 47.3 °F 98% 30.21 in 0.2 mi Calm Calm - N/A Fog Fog
5:15 AM 47.5 °F 46.8 °F 97% 30.21 in 0.2 mi Calm Calm - N/A Fog Fog
5:35 AM 47.3 °F 46.4 °F 97% 30.21 in 0.2 mi Calm Calm - N/A Fog Fog
5:55 AM 46.0 °F 45.5 °F 98% 30.21 in 0.2 mi Calm Calm - N/A Fog Fog
6:15 AM 46.0 °F 45.5 °F 98% 30.22 in 0.5 mi Calm Calm - N/A Fog Fog
6:35 AM 45.9 °F 45.5 °F 99% 30.23 in 0.2 mi Calm Calm - N/A Fog Fog
6:55 AM 45.9 °F 45.5 °F 99% 30.23 in 0.2 mi Calm Calm - N/A Fog Fog
7:15 AM 46.2 °F 45.5 °F 97% 30.23 in 0.2 mi Calm Calm - N/A Fog Fog
7:35 AM 46.4 °F 45.7 °F 97% 30.23 in 0.2 mi Calm Calm - N/A Fog Fog
7:55 AM 46.4 °F 45.7 °F 97% 30.23 in 0.2 mi Calm Calm - N/A Fog Fog
8:15 AM 45.9 °F 45.5 °F 99% 30.24 in 0.2 mi Calm Calm - N/A Fog Fog
8:35 AM 46.4 °F 45.9 °F 98% 30.24 in 0.2 mi Calm Calm - N/A Fog Fog
8:55 AM 46.6 °F 46.2 °F 99% 30.24 in 0.2 mi Calm Calm - N/A Fog Fog
9:15 AM 48.9 °F 48.6 °F 99% 30.23 in 0.8 mi Calm Calm - N/A   Overcast
9:35 AM 50.0 °F 49.3 °F 97% 30.23 in 7.0 mi Calm Calm - N/A   Mostly Cloudy
9:55 AM 52.5 °F 51.8 °F 97% 30.23 in 10.0 mi Calm Calm - N/A   Scattered Clouds
10:15 AM 53.6 °F 53.1 °F 98% 30.22 in 10.0 mi Calm Calm - N/A   Clear
10:35 AM 54.5 °F 54.0 °F 98% 30.22 in 10.0 mi Calm Calm - N/A   Clear
10:55 AM 56.8 °F 56.3 °F 98% 30.21 in 10.0 mi Calm Calm - N/A   Clear
11:15 AM 58.5 °F 56.5 °F 93% 30.21 in 10.0 mi Calm Calm - N/A   Clear
11:35 AM 61.7 °F 57.4 °F 86% 30.19 in 10.0 mi Calm Calm - N/A   Clear
11:55 AM 67.6 °F 56.7 °F 68% 30.19 in 10.0 mi Calm Calm - N/A   Clear
12:15 PM 70.2 °F 55.9 °F 61% 30.18 in 10.0 mi Calm Calm - N/A   Clear
12:35 PM 73.9 °F 57.4 °F 56% 30.17 in 10.0 mi Calm Calm - N/A   Clear
12:55 PM 73.8 °F 57.4 °F 56% 30.17 in 10.0 mi Calm Calm - N/A   Clear
1:15 PM 76.3 °F 57.6 °F 52% 30.16 in 10.0 mi Calm Calm - N/A   Clear
1:35 PM 76.3 °F 57.7 °F 53% 30.15 in 10.0 mi Calm Calm - N/A   Clear
1:55 PM 76.6 °F 57.7 °F 52% 30.14 in 10.0 mi Calm Calm - N/A   Clear
2:15 PM 78.8 °F 59.5 °F 52% 30.14 in 10.0 mi Calm Calm - N/A   Clear
2:35 PM 77.9 °F 58.5 °F 51% 30.13 in 10.0 mi Calm Calm - N/A   Clear
2:55 PM 79.0 °F 59.0 °F 50% 30.12 in 10.0 mi Calm Calm - N/A   Clear
3:15 PM 79.0 °F 59.5 °F 51% 30.11 in 10.0 mi Calm Calm - N/A   Clear
3:35 PM 79.2 °F 58.6 °F 49% 30.11 in 10.0 mi Calm Calm - N/A   Scattered Clouds
3:55 PM 77.9 °F 58.5 °F 51% 30.10 in 10.0 mi Calm Calm - N/A   Mostly Cloudy
4:15 PM 78.3 °F 59.2 °F 52% 30.10 in 10.0 mi Calm Calm - N/A   Mostly Cloudy
4:35 PM 77.9 °F 57.9 °F 50% 30.09 in 10.0 mi Calm Calm - N/A   Scattered Clouds
4:55 PM 76.6 °F 59.9 °F 56% 30.09 in 10.0 mi Calm Calm - N/A   Mostly Cloudy
5:15 PM 76.8 °F 61.0 °F 58% 30.09 in 10.0 mi Calm Calm - N/A   Mostly Cloudy
5:35 PM 76.5 °F 59.5 °F 56% 30.09 in 10.0 mi Calm Calm - N/A   Mostly Cloudy
5:55 PM 76.6 °F 62.6 °F 62% 30.09 in 10.0 mi Calm Calm - N/A   Overcast
6:15 PM 75.7 °F 61.5 °F 61% 30.09 in 10.0 mi Calm Calm - N/A   Mostly Cloudy
6:35 PM 73.2 °F 64.4 °F 74% 30.09 in 10.0 mi Calm Calm - N/A   Scattered Clouds
6:55 PM 70.0 °F 63.9 °F 81% 30.09 in 10.0 mi Calm Calm - N/A   Clear
7:15 PM 69.1 °F 63.1 °F 81% 30.09 in 10.0 mi Calm Calm - N/A   Scattered Clouds
7:35 PM 67.6 °F 61.3 °F 80% 30.10 in 10.0 mi Calm Calm - N/A   Clear
7:55 PM 66.2 °F 62.1 °F 86% 30.10 in 10.0 mi Calm Calm - N/A   Clear
8:15 PM 64.6 °F 61.0 °F 88% 30.10 in 10.0 mi Calm Calm - N/A   Clear
8:35 PM 63.5 °F 60.4 °F 90% 30.11 in 10.0 mi Calm Calm - N/A   Clear
8:55 PM 63.1 °F 59.4 °F 87% 30.11 in 10.0 mi Calm Calm - N/A   Clear
9:15 PM 62.4 °F 59.2 °F 89% 30.12 in 10.0 mi Calm Calm - N/A   Scattered Clouds
9:35 PM 62.1 °F 59.2 °F 90% 30.12 in 10.0 mi Calm Calm - N/A   Scattered Clouds
9:55 PM 60.4 °F 58.5 °F 93% 30.12 in 10.0 mi Calm Calm - N/A   Clear
10:15 PM 59.9 °F 57.9 °F 93% 30.12 in 10.0 mi Calm Calm - N/A   Clear
10:35 PM 58.8 °F 57.2 °F 94% 30.13 in 7.0 mi Calm Calm - N/A   Clear
10:55 PM 58.5 °F 57.2 °F 96% 30.13 in 10.0 mi Calm Calm - N/A   Clear
11:15 PM 57.6 °F 56.1 °F 95% 30.12 in 7.0 mi Calm Calm - N/A   Clear
11:35 PM 57.0 °F 55.6 °F 95% 30.12 in 10.0 mi Calm Calm - N/A   Clear
11:55 PM 57.9 °F 56.7 °F 96% 30.12 in 10.0 mi Calm Calm - N/A   Scattered Clouds